{"data":{"norad_id":50203,"intl_designator":"2021-125AZ","name":"STARLINK-3257","alt_names":[],"object_type":"PAYLOAD","status":"ACTIVE","operator":null,"country":"US","launch_date":"2021-12-18","launch_site_code":"AFWTR","launch_vehicle":null,"mission":null,"orbit_class":"UNKNOWN","rcs_meters":null,"size_class":null,"mass_kg":null,"dimensions":null,"purposes":["comms"],"wikipedia_slug":null,"has_3d_model":false,"image_url":null,"decayed_at":null,"tle_current":{"epoch":"2026-09-20T04:20:01.203072Z","epoch_age_seconds":72960,"freshness":"FRESH","line1":"1 50203U 21125AZ  26263.18056948  .00000353  00000+0  23150-4 0  9996","line2":"2 50203  53.1594  74.3362 0001159  90.2722 269.8413 15.31701931266314","mean_motion":15.31701931,"eccentricity":0.0001159,"inclination_deg":53.1594,"raan_deg":74.3362,"arg_perigee_deg":90.2722,"mean_anomaly_deg":269.8413,"bstar":2.315e-5,"rev_number":26631,"period_min":94.013069439683,"perigee_km":469.94045484457,"apogee_km":471.52802319778,"semimajor_km":6848.8712390212,"source":"CELESTRAK","updated_at":"2026-09-20T09:00:39.573967Z"}}}